TimeEDT,TemperatureF,Dew PointF,Humidity,Sea Level PressureIn,VisibilityMPH,Wind Direction,Wind SpeedMPH,Gust SpeedMPH,PrecipitationIn,Events,Conditions,WindDirDegrees,DateUTC
12:14 AM,35.6,31.1,84,30.13,10.0,WSW,4.6,-,N/A,,Clear,240,2012-10-08 04:14:00
12:34 AM,34.9,30.7,85,30.13,10.0,SW,4.6,-,N/A,,Clear,230,2012-10-08 04:34:00
12:54 AM,34.9,30.7,85,30.12,10.0,SSW,4.6,-,N/A,,Clear,210,2012-10-08 04:54:00
1:14 AM,32.2,29.5,90,30.12,10.0,Calm,Calm,-,N/A,,Clear,0,2012-10-08 05:14:00
1:34 AM,32.0,29.8,92,30.12,10.0,South,3.5,-,N/A,,Clear,190,2012-10-08 05:34:00
1:54 AM,32.2,30.2,92,30.12,10.0,South,3.5,-,N/A,,Clear,190,2012-10-08 05:54:00
2:14 AM,32.2,29.7,90,30.12,10.0,SSW,6.9,-,N/A,,Clear,200,2012-10-08 06:14:00
2:34 AM,33.8,30.7,89,30.13,10.0,SSW,6.9,-,N/A,,Clear,200,2012-10-08 06:34:00
2:54 AM,33.6,30.6,89,30.13,10.0,SSW,5.8,-,N/A,,Clear,200,2012-10-08 06:54:00
3:14 AM,31.8,29.3,90,30.13,10.0,South,3.5,-,N/A,,Scattered Clouds,190,2012-10-08 07:14:00
3:34 AM,31.1,29.1,92,30.12,10.0,South,5.8,-,N/A,,Scattered Clouds,180,2012-10-08 07:34:00
3:54 AM,31.1,28.9,92,30.12,10.0,South,6.9,-,N/A,,Scattered Clouds,170,2012-10-08 07:54:00
4:14 AM,32.2,30.4,93,30.12,10.0,South,6.9,-,N/A,,Mostly Cloudy,170,2012-10-08 08:14:00
4:34 AM,33.4,31.1,91,30.12,10.0,South,4.6,-,N/A,,Overcast,180,2012-10-08 08:34:00
4:54 AM,36.3,31.3,82,30.12,10.0,South,5.8,-,N/A,,Overcast,180,2012-10-08 08:54:00
5:14 AM,36.9,31.3,80,30.12,10.0,SSW,5.8,-,N/A,,Overcast,200,2012-10-08 09:14:00
5:34 AM,36.7,31.6,82,30.11,10.0,South,6.9,-,N/A,,Mostly Cloudy,190,2012-10-08 09:34:00
5:54 AM,35.8,31.1,83,30.12,10.0,South,5.8,-,N/A,,Scattered Clouds,190,2012-10-08 09:54:00
6:14 AM,35.2,30.9,84,30.12,10.0,South,4.6,-,N/A,,Clear,190,2012-10-08 10:14:00
6:34 AM,34.7,30.2,84,30.12,10.0,South,5.8,-,N/A,,Scattered Clouds,190,2012-10-08 10:34:00
6:54 AM,34.2,30.2,85,30.13,10.0,SSW,6.9,-,N/A,,Clear,200,2012-10-08 10:54:00
7:14 AM,34.7,30.2,84,30.13,10.0,South,6.9,-,N/A,,Mostly Cloudy,190,2012-10-08 11:14:00
7:34 AM,35.6,30.7,82,30.13,10.0,SSW,8.1,-,N/A,,Overcast,210,2012-10-08 11:34:00
7:54 AM,36.0,30.6,81,30.14,10.0,SSW,9.2,-,N/A,,Overcast,210,2012-10-08 11:54:00
8:14 AM,36.9,30.2,77,30.14,10.0,SSW,9.2,-,N/A,,Overcast,210,2012-10-08 12:14:00
8:34 AM,37.6,30.0,74,30.15,10.0,SSW,10.4,-,N/A,,Overcast,210,2012-10-08 12:34:00
8:54 AM,38.8,29.7,70,30.15,10.0,SW,9.2,17.3,N/A,,Overcast,220,2012-10-08 12:54:00
9:14 AM,40.3,29.5,65,30.15,10.0,SSW,12.7,17.3,N/A,,Mostly Cloudy,210,2012-10-08 13:14:00
9:34 AM,41.9,28.4,59,30.16,10.0,SW,12.7,-,N/A,,Overcast,220,2012-10-08 13:34:00
9:54 AM,43.3,28.0,55,30.15,10.0,SW,11.5,-,N/A,,Scattered Clouds,220,2012-10-08 13:54:00
10:14 AM,45.9,27.0,48,30.15,10.0,SW,13.8,-,N/A,,Clear,220,2012-10-08 14:14:00
10:34 AM,47.3,25.7,43,30.15,10.0,SW,12.7,19.6,N/A,,Scattered Clouds,230,2012-10-08 14:34:00
10:54 AM,48.9,25.2,40,30.15,10.0,SW,13.8,20.7,N/A,,Clear,230,2012-10-08 14:54:00
11:14 AM,49.8,25.2,38,30.15,10.0,SSW,15.0,24.2,N/A,,Clear,210,2012-10-08 15:14:00
11:34 AM,50.2,25.2,38,30.14,10.0,SSW,16.1,21.9,N/A,,Clear,210,2012-10-08 15:34:00
11:54 AM,51.4,25.7,37,30.15,10.0,SW,17.3,23.0,N/A,,Clear,220,2012-10-08 15:54:00
12:14 PM,52.5,25.5,35,30.14,10.0,SSW,16.1,23.0,N/A,,Scattered Clouds,210,2012-10-08 16:14:00
12:34 PM,52.3,25.9,36,30.14,10.0,SW,16.1,29.9,N/A,,Scattered Clouds,230,2012-10-08 16:34:00
12:54 PM,53.1,25.5,34,30.14,10.0,WSW,12.7,17.3,N/A,,Scattered Clouds,240,2012-10-08 16:54:00
1:14 PM,53.8,25.0,33,30.13,10.0,SW,12.7,20.7,N/A,,Scattered Clouds,220,2012-10-08 17:14:00
1:34 PM,53.8,23.9,31,30.13,10.0,SW,11.5,18.4,N/A,,Scattered Clouds,220,2012-10-08 17:34:00
1:54 PM,54.1,23.5,31,30.12,10.0,SSW,16.1,23.0,N/A,,Clear,200,2012-10-08 17:54:00
2:14 PM,54.3,22.8,29,30.11,10.0,SSW,11.5,24.2,N/A,,Clear,210,2012-10-08 18:14:00
2:34 PM,54.3,22.1,29,30.10,10.0,SW,17.3,23.0,N/A,,Clear,220,2012-10-08 18:34:00
2:54 PM,54.5,22.1,28,30.09,10.0,SSW,12.7,20.7,N/A,,Clear,210,2012-10-08 18:54:00
3:14 PM,54.9,22.1,28,30.09,10.0,SSW,15.0,19.6,N/A,,Clear,200,2012-10-08 19:14:00
3:34 PM,54.5,21.2,27,30.09,10.0,SSW,12.7,-,N/A,,Clear,210,2012-10-08 19:34:00
3:54 PM,54.5,21.6,28,30.08,10.0,SSW,13.8,-,N/A,,Clear,200,2012-10-08 19:54:00
4:14 PM,55.4,21.9,27,30.07,10.0,SSW,11.5,18.4,N/A,,Clear,200,2012-10-08 20:14:00
4:34 PM,55.0,21.9,28,30.07,10.0,South,15.0,20.7,N/A,,Clear,190,2012-10-08 20:34:00
4:54 PM,54.9,21.9,28,30.06,10.0,SSW,12.7,20.7,N/A,,Clear,200,2012-10-08 20:54:00
5:14 PM,54.7,22.1,28,30.06,10.0,SSW,13.8,19.6,N/A,,Clear,210,2012-10-08 21:14:00
5:34 PM,54.5,22.1,28,30.06,10.0,SSW,13.8,19.6,N/A,,Clear,210,2012-10-08 21:34:00
5:54 PM,54.0,22.1,29,30.05,10.0,SSW,11.5,17.3,N/A,,Clear,210,2012-10-08 21:54:00
6:14 PM,53.6,22.8,30,30.06,10.0,SSW,15.0,-,N/A,,Clear,200,2012-10-08 22:14:00
6:34 PM,52.9,23.0,31,30.05,10.0,SSW,11.5,-,N/A,,Clear,210,2012-10-08 22:34:00
6:54 PM,51.6,23.7,34,30.05,10.0,SSW,9.2,18.4,N/A,,Clear,200,2012-10-08 22:54:00
7:14 PM,50.0,25.2,38,30.06,10.0,South,6.9,-,N/A,,Clear,190,2012-10-08 23:14:00
7:34 PM,48.6,25.7,41,30.06,10.0,South,6.9,-,N/A,,Clear,190,2012-10-08 23:34:00
7:54 PM,47.3,25.9,43,30.06,10.0,South,5.8,-,N/A,,Clear,170,2012-10-08 23:54:00
8:14 PM,44.8,26.6,49,30.06,7.0,South,8.1,-,N/A,,Clear,170,2012-10-09 00:14:00
8:34 PM,43.7,27.3,53,30.06,10.0,South,6.9,-,N/A,,Clear,170,2012-10-09 00:34:00
8:54 PM,44.1,27.3,52,30.06,10.0,South,8.1,-,N/A,,Clear,170,2012-10-09 00:54:00
9:34 PM,44.8,27.1,50,30.06,10.0,South,8.1,-,N/A,,Clear,180,2012-10-09 01:34:00
9:54 PM,43.9,27.3,52,30.07,10.0,South,6.9,-,N/A,,Clear,180,2012-10-09 01:54:00
10:14 PM,41.7,27.5,57,30.07,10.0,South,6.9,-,N/A,,Clear,180,2012-10-09 02:14:00
10:34 PM,42.8,27.5,55,30.07,10.0,South,6.9,-,N/A,,Clear,180,2012-10-09 02:34:00
10:54 PM,43.2,27.3,54,30.06,10.0,South,10.4,-,N/A,,Clear,170,2012-10-09 02:54:00
11:14 PM,43.0,27.5,54,30.06,10.0,South,10.4,-,N/A,,Clear,180,2012-10-09 03:14:00
11:54 PM,43.9,27.5,53,30.05,10.0,South,11.5,-,N/A,,Clear,180,2012-10-09 03:54:00